TimeBST,TemperatureF,Dew PointF,Humidity,Sea Level PressureIn,VisibilityMPH,Wind Direction,Wind SpeedMPH,Gust SpeedMPH,PrecipitationIn,Events,Conditions,WindDirDegrees,DateUTC
12:20 AM,57.2,50.0,77,29.71,6.2,SSE,4.6,-,N/A,,Unknown,150,2013-06-11 23:20:00
12:50 AM,57.2,48.2,72,29.68,-9999.0,South,6.9,-,N/A,,Clear,170,2013-06-11 23:50:00
1:20 AM,57.2,48.2,72,29.68,6.2,South,6.9,-,N/A,Rain,Light Rain,170,2013-06-12 00:20:00
1:50 AM,55.4,48.2,77,29.68,6.2,SSE,6.9,-,N/A,Rain,Light Rain,160,2013-06-12 00:50:00
2:20 AM,55.4,48.2,77,29.68,6.2,SSE,4.6,-,N/A,Rain,Light Rain,160,2013-06-12 01:20:00
2:50 AM,53.6,50.0,88,29.68,-9999.0,Variable,2.3,-,N/A,Rain,Rain,0,2013-06-12 01:50:00
3:20 AM,51.8,50.0,94,29.65,3.1,ENE,4.6,-,N/A,Rain,Light Rain,60,2013-06-12 02:20:00
3:50 AM,53.6,51.8,94,29.65,6.2,ESE,6.9,-,N/A,Rain,Light Rain,120,2013-06-12 02:50:00
4:20 AM,53.6,51.8,94,29.62,6.2,SE,8.1,-,N/A,,Mostly Cloudy,140,2013-06-12 03:20:00
4:50 AM,53.6,51.8,94,29.62,6.2,SE,4.6,-,N/A,,Mostly Cloudy,140,2013-06-12 03:50:00
5:20 AM,53.6,51.8,94,29.62,6.2,NE,4.6,-,N/A,,Mostly Cloudy,40,2013-06-12 04:20:00
5:50 AM,53.6,51.8,94,29.62,6.2,ENE,4.6,-,N/A,,Mostly Cloudy,60,2013-06-12 04:50:00
6:20 AM,53.6,53.6,100,29.62,6.2,ENE,5.8,-,N/A,,Scattered Clouds,70,2013-06-12 05:20:00
6:50 AM,53.6,53.6,100,29.59,6.2,NE,4.6,-,N/A,,Mostly Cloudy,50,2013-06-12 05:50:00
7:20 AM,55.4,53.6,94,29.59,6.2,ENE,3.5,-,N/A,,Mostly Cloudy,60,2013-06-12 06:20:00
7:50 AM,55.4,53.6,94,29.59,6.2,North,3.5,-,N/A,,Mostly Cloudy,360,2013-06-12 06:50:00
8:20 AM,55.4,53.6,94,29.59,6.2,Variable,2.3,-,N/A,Rain,Light Rain,0,2013-06-12 07:20:00
8:50 AM,55.4,53.6,94,29.59,-9999.0,Variable,3.5,-,N/A,,Drizzle,0,2013-06-12 07:50:00
9:20 AM,55.4,53.6,94,29.59,3.7,Variable,2.3,-,N/A,,Mostly Cloudy,0,2013-06-12 08:20:00
9:50 AM,57.2,55.4,94,29.59,6.2,Variable,3.5,-,N/A,,Mostly Cloudy,0,2013-06-12 08:50:00
10:20 AM,57.2,55.4,94,29.59,6.2,WSW,6.9,-,N/A,,Mostly Cloudy,240,2013-06-12 09:20:00
10:50 AM,59.0,53.6,82,29.59,6.2,WSW,8.1,-,N/A,,Mostly Cloudy,250,2013-06-12 09:50:00
11:20 AM,59.0,53.6,82,29.59,6.2,West,8.1,-,N/A,,Mostly Cloudy,260,2013-06-12 10:20:00
11:50 AM,59.0,51.8,77,29.62,6.2,WSW,9.2,-,N/A,,Mostly Cloudy,250,2013-06-12 10:50:00
12:20 PM,59.0,53.6,82,29.62,6.2,WSW,12.7,-,N/A,,Mostly Cloudy,240,2013-06-12 11:20:00
12:50 PM,60.8,53.6,77,29.59,6.2,West,11.5,-,N/A,,Mostly Cloudy,260,2013-06-12 11:50:00
1:20 PM,62.6,53.6,72,29.59,6.2,SW,15.0,-,N/A,,Mostly Cloudy,230,2013-06-12 12:20:00
1:50 PM,62.6,51.8,68,29.59,6.2,SW,15.0,-,N/A,,Mostly Cloudy,230,2013-06-12 12:50:00
2:20 PM,62.6,51.8,68,29.59,6.2,SW,15.0,-,N/A,,Mostly Cloudy,230,2013-06-12 13:20:00
2:50 PM,60.8,51.8,72,29.59,6.2,SW,16.1,-,N/A,,Mostly Cloudy,220,2013-06-12 13:50:00
3:20 PM,60.8,51.8,72,29.59,6.2,SW,13.8,-,N/A,,Mostly Cloudy,230,2013-06-12 14:20:00
3:50 PM,64.4,53.6,68,29.59,6.2,West,13.8,-,N/A,,Mostly Cloudy,260,2013-06-12 14:50:00
4:20 PM,62.6,51.8,68,29.59,6.2,WSW,16.1,-,N/A,,Mostly Cloudy,240,2013-06-12 15:20:00
4:50 PM,62.6,51.8,68,29.59,6.2,SW,18.4,-,N/A,,Mostly Cloudy,230,2013-06-12 15:50:00
5:20 PM,60.8,51.8,72,29.62,6.2,WSW,18.4,-,N/A,,Mostly Cloudy,240,2013-06-12 16:20:00
5:50 PM,59.0,51.8,77,29.62,6.2,WSW,18.4,-,N/A,,Mostly Cloudy,240,2013-06-12 16:50:00
6:20 PM,59.0,50.0,72,29.62,6.2,WSW,16.1,-,N/A,,Mostly Cloudy,240,2013-06-12 17:20:00
6:50 PM,59.0,50.0,72,29.59,6.2,WSW,11.5,-,N/A,,Scattered Clouds,250,2013-06-12 17:50:00
7:20 PM,60.8,50.0,68,29.59,6.2,WSW,9.2,-,N/A,,Scattered Clouds,250,2013-06-12 18:20:00
7:50 PM,60.8,50.0,68,29.59,6.2,WSW,10.4,-,N/A,,Scattered Clouds,250,2013-06-12 18:50:00
8:20 PM,59.0,50.0,72,29.59,6.2,West,6.9,-,N/A,,Scattered Clouds,280,2013-06-12 19:20:00
8:50 PM,59.0,48.2,67,29.59,6.2,West,9.2,-,N/A,,Partly Cloudy,260,2013-06-12 19:50:00
9:20 PM,59.0,50.0,72,29.59,6.2,West,5.8,-,N/A,,Scattered Clouds,280,2013-06-12 20:20:00
9:50 PM,59.0,50.0,72,29.59,6.2,West,5.8,-,N/A,Rain,Light Rain,280,2013-06-12 20:50:00
10:20 PM,55.4,48.2,77,29.59,6.2,West,4.6,-,N/A,,Mostly Cloudy,280,2013-06-12 21:20:00
10:50 PM,55.4,48.2,77,29.59,6.2,West,4.6,-,N/A,,Scattered Clouds,260,2013-06-12 21:50:00
11:20 PM,53.6,48.2,82,29.59,6.2,West,3.5,-,N/A,,Scattered Clouds,260,2013-06-12 22:20:00
11:50 PM,51.8,48.2,88,29.59,6.2,WSW,3.5,-,N/A,,Partly Cloudy,240,2013-06-12 22:50:00